www.pogodaiklimat.ru

Погода и климат >> Архив погоды >> Великобритания >> Sule Skerry


ПОГОДА в Sule Skerry

  • Прогноз погоды в Sule Skerry
  • Монитор погоды в Sule Skerry
  • Климат города

АРХИВ ПОГОДЫ в Sule Skerry

Время (UTC), дата Ветер
(напр.,м/с)
 
Видим.   Явления Облачность Т
(С)
Тd
(С)
f
(%)
Тe
(С)
Тes
(С)
Комфортность P
(гПа)
Po
(гПа)
Тmin
(С)
Tmax
(С)
R
(мм)
R24
(мм)
S
(см)
10 11.12 В 7 н/о н/о +6.8 +2.7 75 +2 +2 990.9 991.0
11 11.12 С 7 н/о н/о +7.2 +1.5 67 +3 +3 991.8 992.0
12 11.12 С 7 н/о н/о +7.1 +2.5 73 +2 +2 992.7 993.0
13 11.12 С 7 н/о н/о +6.5 +2.0 73 +2 +2 993.3 993.0
14 11.12 С 4 н/о н/о +6.4 +2.6 77 +3 +3 993.7 994.0
15 11.12 С 7
{13}
н/о н/о +6.8 +3.2 78 +2 +2 994.3 994.0
16 11.12 С 7 н/о н/о +6.7 +3.4 79 +2 +2 995.3 995.0
17 11.12 С 8 н/о н/о +6.8 +1.5 69 +2 +2 995.9 996.0
18 11.12 С 8 н/о н/о +6.5 +1.9 72 +1 +1 996.5 997.0
19 11.12 С 8 н/о н/о +7.0 +1.0 66 +2 +2 997.3 997.0
20 11.12 С 9 н/о н/о +6.9 +1.2 67 +2 +2 997.9 998.0
21 11.12 С 9
{13}
н/о н/о +6.8 +0.8 66 +2 +2 997.9 998.0
22 11.12 С 9 н/о н/о +7.1 +1.9 69 +2 +2 997.9 998.0
23 11.12 С 9
{13}
н/о н/о +6.8 +2.3 73 +2 +2 997.9 998.0
00 12.12 С 9 н/о н/о +7.1 +2.1 70 +2 +2 998.5 999.0
01 12.12 СЗ 10 н/о н/о +7.1 +1.7 68 +2 +2 998.9 999.0
02 12.12 СЗ 9 н/о н/о +7.0 +1.2 67 +2 +2 999.5 1000.0
03 12.12 С 7 н/о н/о +6.8 +1.1 67 +2 +2 999.1 999.0
04 12.12 СЗ 5 н/о н/о +6.8 +1.1 67 +3 +3 998.9 999.0
05 12.12 СЗ 6 н/о н/о +6.4 +0.1 64 +2 +2 999.1 999.0
06 12.12 З 5 н/о н/о +6.6 +0.4 65 +3 +3 998.9 999.0
07 12.12 СЗ 4 н/о н/о +6.4 0.0 64 +3 +3 998.9 999.0
08 12.12 З 3 н/о н/о +5.9 -0.7 63 +3 +3 998.5 999.0
09 12.12 З 3 н/о н/о +6.1 +0.2 66 +4 +4 998.5 999.0
10 12.12 ЮЗ 4 н/о н/о +6.6 -0.3 61 +4 +4 997.9 998.0
11 12.12 ЮЗ 6 н/о н/о +6.6 +1.9 72 +2 +2 997.5 998.0
12 12.12 Ю 8 н/о н/о +6.6 +3.3 79 +2 +2 996.9 997.0
13 12.12 Ю 8 н/о н/о +6.3 +3.3 81 +1 +1 995.9 996.0
14 12.12 Ю 8 н/о н/о +6.0 +3.0 81 +1 +1 994.9 995.0
15 12.12 Ю 8 н/о н/о +6.3 +3.3 81 +1 +1 993.5 994.0
16 12.12 Ю 10 н/о н/о +6.1 +3.0 80 0 0 992.5 993.0
17 12.12 Ю 11
{13}
н/о н/о +6.1 +2.9 80 -0 -0 991.5 992.0
18 12.12 Ю 11
{14}
н/о н/о +5.6 +3.0 83 -1 -1 990.3 990.0
19 12.12 Ю 14
{16}
н/о н/о +5.1 +2.9 86 -2 -2 989.3 989.0
20 12.12 Ю 14
{16}
н/о н/о +5.1 +2.9 86 -2 -2 989.3 989.0
21 12.12 Ю 11
{17}
н/о н/о +5.6 +4.3 91 -1 -1 987.3 987.0
22 12.12 ЮЗ 8
{16}
н/о н/о +5.9 +4.9 93 0 0 986.4 986.0
23 12.12 З 12
{16}
н/о н/о +7.7 +4.3 79 +2 +2 985.6 986.0
00 13.12 З 12
{19}
н/о н/о +7.3 +4.2 81 +1 +1 985.6 986.0
01 13.12 З 16
{22}
н/о н/о +5.2 +1.6 78 -2 -2 985.9 986.0
02 13.12 ЮЗ 9
{23}
н/о н/о +6.6 +3.7 82 +1 +1 984.6 985.0
03 13.12 З 13
{19}
н/о н/о +7.1 +3.1 76 +1 +1 984.0 984.0
04 13.12 З 13
{16}
н/о н/о +7.1 +2.4 72 +1 +1 983.0 983.0
05 13.12 З 10
{14}
н/о н/о +6.8 +3.5 79 +1 +1 982.2 982.0
06 13.12 ЮЗ 8
{13}
н/о н/о +6.6 +3.8 82 +1 +1 980.6 981.0
07 13.12 ЮЗ 11
{14}
н/о н/о +6.6 +3.9 83 +1 +1 979.2 979.0
08 13.12 Ю 13
{16}
н/о н/о +5.6 +3.9 89 -2 -2 977.8 978.0
09 13.12 ЮЗ 11
{18}
н/о н/о +5.1 +3.9 92 -2 -2 977.2 977.0
10 13.12 З 11
{18}
н/о н/о +5.4 +3.7 89 -1 -1 976.4 976.0
11 13.12 ЮЗ 12
{16}
н/о н/о +4.5 +3.0 90 -3 -3 976.4 976.0
12 13.12 З 12
{21}
н/о н/о +5.2 +3.6 89 -2 -2 975.8 976.0
13 13.12 З 11
{18}
н/о н/о +6.1 +4.4 89 -0 -0 975.4 975.0
14 13.12 З 14
{20}
н/о н/о +3.8 +2.2 89 -4 -4 975.4 975.0
15 13.12 З 14
{19}
н/о н/о +4.6 +2.9 89 -3 -3 975.2 975.0
16 13.12 СЗ 12
{16}
н/о н/о +5.6 +2.7 82 -1 -1 975.0 975.0
17 13.12 З 7
{13}
н/о н/о +4.6 +2.4 86 -1 -1 975.2 975.0
18 13.12 З 10
{14}
н/о н/о +5.9 +2.8 80 -0 -0 975.4 975.0
19 13.12 З 8
{16}
н/о н/о +4.2 +1.6 83 -2 -2 975.6 976.0
20 13.12 З 9 н/о н/о +5.5 +2.6 82 -0 -0 975.2 975.0
21 13.12 З 12
{17}
н/о н/о +3.9 +0.9 81 -3 -3 975.2 975.0
22 13.12 З 9
{15}
н/о н/о +6.0 +2.4 78 0 0 975.0 975.0
23 13.12 З 10
{13}
н/о н/о +5.8 +1.7 75 -0 -0 975.0 975.0
00 14.12 З 10
{14}
н/о н/о +5.9 +2.5 79 -0 -0 975.0 975.0
01 14.12 З 10
{14}
н/о н/о +5.7 +2.5 80 -1 -1 974.8 975.0
02 14.12 З 9 н/о н/о +5.6 +2.7 82 -0 -0 975.2 975.0
03 14.12 З 10
{14}
н/о н/о +5.4 +2.8 83 -1 -1 975.0 975.0
04 14.12 З 10
{19}
н/о н/о +4.5 +2.3 86 -2 -2 975.0 975.0
05 14.12 З 8
{15}
н/о н/о +6.0 +2.8 80 +1 +1 974.4 974.0
06 14.12 З 10
{13}
н/о н/о +6.4 +2.3 75 +1 +1 974.2 974.0
07 14.12 З 9
{13}
н/о н/о +6.9 +2.2 72 +2 +2 974.2 974.0
08 14.12 З 11
{15}
н/о н/о +7.1 +3.5 78 +1 +1 973.8 974.0
09 14.12 СЗ 9
{17}
н/о н/о +5.5 +3.7 88 -1 -1 973.8 974.0
10 14.12 СЗ 10
{14}
н/о н/о +5.8 +4.1 89 -1 -1 974.2 974.0
11 14.12 З 6 н/о н/о +5.5 +3.4 86 0 0 974.4 974.0
12 14.12 З 5 н/о н/о +4.8 +3.2 89 0 0 974.4 974.0
13 14.12 СВ 3 н/о н/о +5.3 +3.8 90 +2 +2 975.2 975.0
14 14.12 СВ 4 н/о н/о +5.5 +4.3 92 +2 +2 976.0 976.0
15 14.12 СВ 5 н/о н/о +5.8 +4.4 91 +1 +1 977.8 978.0
16 14.12 СВ 6 н/о н/о +6.3 +4.6 89 +1 +1 979.6 980.0
17 14.12 СВ 12
{16}
н/о н/о +6.1 +4.6 90 -1 -1 982.0 982.0
18 14.12 СВ 8
{15}
н/о н/о +7.0 +5.7 91 +2 +2 984.4 984.0
19 14.12 С 8 н/о н/о +7.3 +5.3 87 +2 +2 986.2 986.0
20 14.12 С 8
{15}
н/о н/о +6.2 +4.7 90 +1 +1 987.8 988.0
21 14.12 С 17
{21}
н/о н/о +6.6 +5.4 92 -1 -1 988.8 989.0
22 14.12 С 18
{25}
н/о н/о +6.0 +5.0 93 -2 -2 990.7 991.0
23 14.12 С 15
{23}
н/о н/о +7.3 +5.1 86 +1 +1 992.2 992.0
00 15.12 С 15
{24}
н/о н/о +7.1 +4.5 84 0 0 994.1 994.0
01 15.12 С 13
{19}
н/о н/о +5.5 +3.2 85 -2 -2 996.3 996.0
02 15.12 СВ 15
{20}
н/о н/о +5.0 +3.1 88 -3 -3 997.5 998.0
03 15.12 С 11
{17}
н/о н/о +6.7 +2.6 75 +1 +1 998.7 999.0
04 15.12 С 12
{15}
н/о н/о +6.6 +2.7 76 +1 +1 999.7 1000.0
05 15.12 С 11
{16}
н/о н/о +6.4 +3.3 81 0 0 1000.9 1001.0
06 15.12 СЗ 10
{18}
н/о н/о +5.9 +3.3 83 -0 -0 1001.5 1002.0
07 15.12 С 11
{15}
н/о н/о +6.4 +3.7 83 0 0 1002.1 1002.0
08 15.12 С 9
{15}
н/о н/о +5.8 +3.1 83 -0 -0 1003.1 1003.0
09 15.12 С 10
{14}
н/о н/о +6.1 +2.7 79 0 0 1004.1 1004.0
10 15.12 С 11
{16}
н/о н/о +4.8 +2.2 83 -2 -2 1004.7 1005.0
11 15.12 С 9
{16}
н/о н/о +3.8 +2.3 90 -3 -3 1005.7 1006.0
12 15.12 С 8
{14}
н/о н/о +5.2 +4.1 93 -1 -1 1005.9 1006.0
13 15.12 СЗ 10
{17}
н/о н/о +5.2 +3.5 89 -1 -1 1006.1 1006.0
14 15.12 С 13
{16}
н/о н/о +5.2 +2.3 82 -2 -2 1006.3 1006.0
15 15.12 С 12
{16}
н/о н/о +4.9 +2.1 82 -2 -2 1007.1 1007.0
16 15.12 СЗ 13
{16}
н/о н/о +5.0 +1.7 79 -2 -2 1007.7 1008.0
17 15.12 СЗ 13
{19}
н/о н/о +4.9 +2.2 83 -2 -2 1008.3 1008.0
18 15.12 С 11
{15}
н/о н/о +5.3 +1.6 77 -1 -1 1008.7 1009.0
19 15.12 С 12
{15}
н/о н/о +5.1 +1.1 75 -2 -2 1008.9 1009.0
20 15.12 СЗ 11
{14}
н/о н/о +5.4 +1.1 74 -1 -1 1009.3 1009.0
21 15.12 СЗ 9
{16}
н/о н/о +4.4 +1.3 80 -2 -2 1009.9 1010.0
22 15.12 СЗ 7
{14}
н/о н/о +4.3 +2.3 87 -2 -2 1009.9 1010.0
23 15.12 СЗ 10
{16}
н/о н/о +4.2 +1.5 83 -2 -2 1010.3 1010.0
00 16.12 С 11
{14}
н/о н/о +5.0 +1.2 76 -2 -2 1010.1 1010.0
01 16.12 СЗ 11
{16}
н/о н/о +5.0 +1.9 80 -2 -2 1010.3 1010.0
02 16.12 СЗ 11
{18}
н/о н/о +5.3 +1.2 75 -1 -1 1010.7 1011.0
03 16.12 СЗ 10
{16}
н/о н/о +4.9 +1.3 77 -2 -2 1010.9 1011.0
04 16.12 СЗ 10
{16}
н/о н/о +5.5 +1.5 75 -1 -1 1011.1 1011.0
05 16.12 С 11
{14}
н/о н/о +4.4 +1.1 79 -3 -3 1011.7 1012.0
06 16.12 СЗ 11
{14}
н/о н/о +5.2 +1.4 76 -1 -1 1011.7 1012.0
07 16.12 С 8
{14}
н/о н/о +5.2 +1.2 75 -1 -1 1011.9 1012.0
08 16.12 СЗ 10 н/о н/о +5.5 +1.0 73 -1 -1 1012.3 1012.0
09 16.12 С 9
{13}
н/о н/о +5.6 -0.1 67 0 0 1013.3 1013.0
10 16.12 С 7 н/о н/о +5.5 +1.0 73 0 0 1013.7 1014.0
11 16.12 С 6 н/о н/о +5.4 +1.5 76 +1 +1 1014.5 1015.0
12 16.12 СЗ 5 н/о н/о +5.7 +1.1 72 +1 +1 1014.7 1015.0
13 16.12 СЗ 5 н/о н/о +5.6 +0.5 70 +2 +2 1014.9 1015.0
14 16.12 З 7 н/о н/о +4.9 +0.9 75 -0 -0 1015.3 1015.0
15 16.12 СЗ 3 н/о н/о +4.9 +1.0 76 +2 +2 1015.5 1016.0
16 16.12 СЗ 3 н/о н/о +4.8 +1.0 76 +2 +2 1015.9 1016.0
17 16.12 ЮЗ 3 н/о н/о +4.5 +1.3 80 +1 +1 1016.1 1016.0
18 16.12 Ю 3 н/о н/о +5.0 +2.2 82 +2 +2 1016.1 1016.0
19 16.12 Ю 5 н/о н/о +5.2 +2.7 84 +1 +1 1015.9 1016.0
20 16.12 Ю 5 н/о н/о +5.8 +3.3 84 +2 +2 1015.9 1016.0
21 16.12 ЮЗ 6 н/о н/о +6.5 +3.5 81 +2 +2 1015.5 1016.0
22 16.12 ЮЗ 6 н/о н/о +5.9 +3.2 83 +1 +1 1014.9 1015.0
23 16.12 Ю 8 н/о н/о +6.7 +4.7 87 +1 +1 1014.5 1015.0
00 17.12 ЮЗ 9 н/о н/о +6.9 +5.3 90 +1 +1 1013.7 1014.0
01 17.12 Ю 10
{13}
н/о н/о +7.2 +5.4 88 +2 +2 1012.9 1013.0
02 17.12 Ю 10 н/о н/о +6.0 +4.4 89 -0 -0 1011.7 1012.0
03 17.12 Ю 10
{13}
н/о н/о +5.9 +5.3 96 -1 -1 1010.1 1010.0
04 17.12 Ю 11
{14}
н/о н/о +6.6 +6.4 99 0 0 1008.5 1009.0
05 17.12 Ю 9
{13}
н/о н/о +8.5 +8.5 100 +3 +3 1006.7 1007.0
06 17.12 Ю 12
{14}
н/о н/о +8.4 +8.4 100 +3 +3 1004.7 1005.0
07 17.12 Ю 10
{16}
н/о н/о +8.5 +8.5 100 +3 +3 1003.5 1004.0
08 17.12 Ю 14
{18}
н/о н/о +8.8 +8.8 100 +3 +3 1002.1 1002.0
09 17.12 ЮЗ 12
{19}
н/о н/о +9.2 +9.2 100 +4 +4 1001.5 1002.0
10 17.12 З 10
{16}
н/о н/о +9.1 +9.1 100 +4 +4 1002.1 1002.0
11 17.12 СЗ 15
{21}
н/о н/о +7.5 +7.5 100 +1 +1 1002.9 1003.0
12 17.12 СЗ 15
{21}
н/о н/о +8.6 +6.4 86 +3 +3 1004.3 1004.0
13 17.12 СЗ 15
{22}
н/о н/о +8.0 +4.6 79 +2 +2 1005.5 1006.0
14 17.12 СЗ 17
{22}
н/о н/о +8.2 +4.2 76 +2 +2 1007.3 1007.0
15 17.12 СЗ 12
{22}
н/о н/о +7.7 +4.3 79 +2 +2 1008.7 1009.0
16 17.12 СЗ 10
{17}
н/о н/о +7.0 +5.0 87 +1 +1 1009.7 1010.0
17 17.12 З 13
{22}
н/о н/о +7.7 +5.1 84 +2 +2 1010.5 1011.0
18 17.12 СЗ 12
{16}
н/о н/о +8.1 +5.2 82 +2 +2 1011.7 1012.0
19 17.12 СЗ 15
{20}
н/о н/о +8.0 +4.7 80 +2 +2 1012.9 1013.0
20 17.12 З 12
{19}
н/о н/о +7.9 +5.0 82 +2 +2 1013.9 1014.0
21 17.12 СЗ 11
{16}
н/о н/о +7.9 +4.8 81 +2 +2 1014.7 1015.0
22 17.12 СЗ 11
{14}
н/о н/о +8.0 +4.7 80 +3 +3 1015.5 1016.0
23 17.12 СЗ 10
{15}
н/о н/о +8.1 +4.4 77 +3 +3 1016.5 1017.0
00 18.12 З 9
{14}
н/о н/о +7.9 +4.5 79 +3 +3 1017.1 1017.0
01 18.12 З 9 н/о н/о +8.1 +4.6 79 +3 +3 1017.5 1018.0
02 18.12 З 9 н/о н/о +7.9 +4.7 80 +3 +3 1018.1 1018.0
03 18.12 З 8 н/о н/о +8.1 +4.9 80 +3 +3 1019.1 1019.0
04 18.12 З 8 н/о н/о +8.2 +5.1 81 +4 +4 1019.7 1020.0
05 18.12 З 9 н/о н/о +8.7 +5.6 81 +4 +4 1020.1 1020.0
06 18.12 ЮЗ 8 н/о н/о +8.3 +6.1 86 +4 +4 1020.1 1020.0
07 18.12 ЮЗ 8 н/о н/о +8.4 +6.3 87 +4 +4 1020.1 1020.0
08 18.12 ЮЗ 10
{13}
н/о н/о +8.7 +6.7 87 +4 +4 1020.1 1020.0
09 18.12 ЮЗ 9
{13}
н/о н/о +8.9 +7.4 90 +4 +4 1020.1 1020.0

 

Местоположение метеостанции Sule Skerry (Великобритания): широта 59.08 долгота -4.40 высота над уровнем моря 12 м.

В архиве по умолчанию представлена погода в Sule Skerry за последнюю неделю. Архивные данные за месяц целиком и за предыдущие месяцы, начиная с января 2011 года, Вы можете получить, выбрав интересующий диапазон дат из раскрывающегося списка и нажав кнопку "Ввод!".

Внимание! Время в таблицах - всемирное. Для получения местного времени необходимо прибавить поправку, которая в Sule Skerry равна 0 ч.

Смотрите также архив погоды в соседних городах и на ближайших метеорологических станциях:

Погода в Kirkwall (Великобритания) (87 км)
Погода в Altnaharra (Великобритания) (89 км)
Погода в Wick (Великобритания) (103 км)
Погода в Tain Range (Великобритания) (142 км)
Погода в Stornoway (Великобритания) (147 км)
Погода в Aultbea (Великобритания) (152 км)
Погода в Loch Glascarnoch (Великобритания) (154 км)
Погода в Lossiemouth (Великобритания) (164 км)
Погода в Fair Isle (Великобритания) (165 км)
Погода в Kinloss (Великобритания) (166 км)

Пояснения к столбцам:

Ветер - указаны скорость ветра в м/с - средняя за 10 мин, порывы в срок и между сроками (в фигурных скобках) и направление, откуда дует ветер: С - северный, СВ - северо-восточный, В - восточный, ЮВ - юго-восточный, Ю - южный, ЮЗ - юго-западный, З - западный, СЗ - северо-западный.
Видимость - горизонтальная дальность видимости в метрах или километрах. При видимости от 1 до 10 км при отсутствии осадков обычно наблюдается дымка, при ухудшении видимости до 1 км и менее - туман. В сухую погоду видимость может ухудшаться дымом, пылью или мглою.
Явления - указаны атмосферные явления, наблюдавшиеся в срок или в последний час перед сроком; фигурными скобками обозначены явления, наблюдавшиеся между сроками (за 1-3 часа до срока); квадратными скобками обозначены град или гололедные отложения с указанием их диаметра в мм.
Облачность - указаны через наклонную черту общая и нижняя облачность в баллах и высота нижней границы облаков в метрах; квадратными скобками обозначены формы облаков: Ci - перистые, Cs - перисто-слоистые, Cc - перисто-кучевые, Ac - высококучевые, As - высокослоистые, Sc - слоисто-кучевые, Ns - слоисто-дождевые, Cu - кучевые, Cb - кучево-дождевые. Подробнее классификацию облаков см. в Атласе облаков (PDF).
T - Температура воздуха - температура, измеренная на высоте 2 м над землей.
Td - Температура точки росы - температура, при понижении до которой содержащийся в воздухе водяной пар достигнет насыщения.
f - Относительная влажность воздуха - влажноcть воздуха, измеренная на высоте 2 м над землей.
Te - Эффективная температура - температура, которую ощущает одетый по сезону человек в тени. Характеристика душности погоды. При расчете учитывается влияние влажности воздуха и скорости ветра на теплоощущения человека.
Tes - Эффективная температура на солнце - температура, которую ощущает человек, с поправкой на солнечный нагрев. Характеристика знойности погоды. Зависит от высоты солнца над горизонтом, облачности и скорости ветра. Ночью, в пасмурную погоду, а также при ветре 12 м/с и более поправка равна нулю.
P - Атмосферное давление - приведенное к уровню моря атмосферное давление.
Po - Атмосферное давление - измеренное на уровне метеостанции атмосферное давление.
Tmin - Минимальная температура - минимум температуры воздуха на высоте 2 м над землей.
Tmax - Максимальная температура - максимум температуры воздуха на высоте 2 м над землей.
R - Количество осадков - Количество выпавших осадков за период времени, мм. При наведении курсора мыши на число - период времени, за который выпало указанное количество осадков.
R24 - Количество осадков - Количество выпавших осадков за 24 часа, мм.
S - Снежный покров - Высота снежного покрова, см. При наведении курсора мыши на число - состояние снежного покрова и степень покрытия местности в баллах.